ウカイメデン彗星

C/2013 V5 ( Oukaimeden )

English version
Home page
Updated on May 31, 2015

---------------------------------------------------------------------

・ プロフィール

発見日 2013年11月12日
発見光度 19.4等
発見者 Michel Ory (Oukaimeden Observatory, Marrakech)

・ 写真集

・ 軌道要素

Epoch 2014 Sept. 20.0 TT = JDT 2456920.5
T 2014 Sept. 28.22384 TT                                MPCW
q   0.6254862            (2000.0)            P               Q
z  +0.0021372      Peri.  314.57524     +0.74284344     -0.52160697
                   Node   278.61564     -0.42774998     -0.85201378
e   0.9986632      Incl.  154.88452     -0.51498892     -0.04470668
From 1465 observations 2013 Nov. 12-2015 Apr. 15, mean residual 0".5.
     Nongravitational parameters A1 = +0.48, A2 = -0.0404.

・ 星図

・ 光度変化

        m1 =  8.5 + 5 logΔ + 10.0 log r  [   ,-54]  (              〜2014年 8月 5日)
        m1 =  9.0 + 5 logΔ +  5.0 log r  [-54,  0]  (2014年 8月 5日〜2014年 9月28日)
        m1 = 10.5 + 5 logΔ + 12.5 log r  [  0,   ]  (2014年 9月28日〜              )

---------------------------------------------------------------------

軌道要素はM.P.E.C. 2015-H37に掲載されたものです。
星図はステラナビゲータ Ver.8 (アストロアーツ) で作成したものです。
光度グラフはComet for Windowsで作成したものです。

---------------------------------------------------------------------

Copyright(C) Seiichi Yoshida (comet@aerith.net). All rights reserved.